Location: Sundre
(51.7972°N, 114.6405°W)
Time: 09:39:41
(UTC-07:00)

M-CUBED/EXP-1 PRIME - Visible Passes

Search period start: 25 January 2020 00:00
Search period end: 04 February 2020 00:00
Orbit: 429 x 668 km, 101.7° (Epoch: 24 January)

Date Brightness Start Highest point End Pass type
(mag) Time Alt. Az. Time Alt. Az. Time Alt. Az.
25 Jan ? 06:48:31 10° ENE 06:50:22 14° E 06:52:13 10° SE visible
25 Jan ? 19:12:25 10° SW 19:15:06 17° W 19:17:42 10° NW visible
26 Jan ? 06:44:09 10° ENE 06:45:28 12° E 06:46:48 10° ESE visible
26 Jan ? 19:07:18 10° SSW 19:10:15 20° W 19:13:04 10° NW visible
27 Jan ? 19:02:14 10° SSW 19:05:24 22° W 19:08:24 10° NW visible
28 Jan ? 18:57:13 10° SSW 19:00:33 26° WSW 19:03:41 10° NW visible
29 Jan ? 18:52:15 10° SSW 18:55:42 29° WSW 18:58:57 10° NW visible
30 Jan ? 18:47:18 10° S 18:50:51 34° WSW 18:54:12 10° NW visible
31 Jan ? 18:42:23 10° S 18:46:01 40° WSW 18:49:25 10° NW visible
01 Feb ? 18:37:30 10° S 18:41:10 47° WSW 18:44:37 10° NNW visible
02 Feb ? 18:32:38 10° S 18:36:20 56° WSW 18:39:49 10° NNW visible
03 Feb ? 18:27:47 10° SSE 18:31:30 67° WSW 18:34:58 10° NNW visible
